| time (UTC) | temp C | wind direction | speed KPH | gust KPH | rain 1hr cm | rain 24hr cm | rain mn cm | humidity % | barometer mb |
| 20260503022211 | 28 | 23 | 3.2 | 6.4 | 0.00 | 0.00 | 0.00 | 70 | 1016.6 |
| 20260503021210 | 28 | 277 | 0.0 | 4.8 | 0.00 | 0.00 | 0.00 | 70 | 1016.8 |
| 20260503015208 | 28 | 357 | 6.4 | 6.4 | 0.00 | 0.00 | 0.00 | 70 | 1017.2 |
| 20260503014207 | 27 | 83 | 3.2 | 4.8 | 0.00 | 0.00 | 0.00 | 70 | 1017.4 |
| 20260503013206 | 27 | 71 | 0.0 | 6.4 | 0.00 | 0.00 | 0.00 | 70 | 1017.4 |
| 20260503012205 | 27 | 57 | 3.2 | 8.0 | 0.00 | 0.00 | 0.00 | 70 | 1017.6 |
| 20260503011204 | 26 | 22 | 1.6 | 4.8 | 0.00 | 0.00 | 0.00 | 70 | 1017.7 |
| 20260503010203 | 26 | 282 | 1.6 | 8.0 | 0.00 | 0.00 | 0.00 | 70 | 1017.9 |
| 20260503005202 | 26 | 32 | 1.6 | 4.8 | 0.00 | 0.00 | 0.00 | 70 | 1018.0 |
| 20260503004201 | 25 | 54 | 3.2 | 8.0 | 0.00 | 0.00 | 0.00 | 70 | 1018.1 |
| 20260503003200 | 25 | 195 | 3.2 | 6.4 | 0.00 | 0.00 | 0.00 | 70 | 1018.2 |
| 20260503002159 | 25 | 128 | 3.2 | 9.7 | 0.00 | 0.00 | 0.00 | 70 | 1018.1 |
| 20260503001133 | 25 | 131 | 3.2 | 11.3 | 0.00 | 0.00 | 0.00 | 70 | 1018.4 |
| 20260502235838 | 25 | 90 | 1.6 | 6.4 | 0.00 | 0.00 | 0.00 | 70 | 1018.6 |
| 20260502234837 | 24 | 88 | 3.2 | 6.4 | 0.00 | 0.00 | 0.00 | 70 | 1018.5 |
| 20260502233837 | 24 | 52 | 1.6 | 9.7 | 0.00 | 0.00 | 0.00 | 70 | 1018.5 |
| 20260502233520 | 24 | 139 | 9.7 | 9.7 | 0.00 | 0.00 | 0.00 | 70 | 1018.5 |
| 20260502232828 | 24 | 64 | 1.6 | 6.4 | 0.00 | 0.00 | 0.00 | 70 | 1018.5 |
| 20260502231827 | 23 | 217 | 1.6 | 6.4 | 0.00 | 0.00 | 0.00 | 70 | 1018.5 |
| 20260502230826 | 23 | 72 | 0.0 | 6.4 | 0.00 | 0.00 | 0.00 | 70 | 1018.5 |
| 20260502225825 | 23 | 101 | 1.6 | 6.4 | 0.00 | 0.00 | 0.18 | 70 | 1018.5 |
| 20260502223823 | 23 | 88 | 4.8 | 11.3 | 0.00 | 0.00 | 0.18 | 70 | 1018.3 |
| 20260502222822 | 22 | 130 | 6.4 | 6.4 | 0.00 | 0.00 | 0.18 | 70 | 1018.3 |
| 20260502221821 | 22 | 118 | 1.6 | 6.4 | 0.00 | 0.00 | 0.18 | 70 | 1018.4 |
| 20260502214817 | 22 | 123 | 4.8 | 6.4 | 0.00 | 0.00 | 0.18 | 70 | 1018.2 |
| 20260502213816 | 22 | 82 | 3.2 | 6.4 | 0.00 | 0.00 | 0.18 | 70 | 1017.9 |
| 20260502212815 | 22 | 158 | 1.6 | 8.0 | 0.00 | 0.00 | 0.18 | 70 | 1018.2 |
| 20260502211814 | 22 | 88 | 1.6 | 6.4 | 0.00 | 0.00 | 0.18 | 70 | 1018.1 |
| 20260502210813 | 22 | 291 | 1.6 | 9.7 | 0.00 | 0.00 | 0.18 | 70 | 1017.8 |
| 20260502210512 | 22 | 121 | 9.7 | 9.7 | 0.00 | 0.00 | 0.18 | 70 | 1017.8 |
| 20260502210211 | 22 | 185 | 0.0 | 9.7 | 0.00 | 0.00 | 0.18 | 70 | 1017.8 |
| 20260502205840 | 22 | 131 | 8.0 | 8.0 | 0.00 | 0.00 | 0.18 | 70 | 1017.7 |
| 20260502205112 | 22 | 45 | 0.0 | 8.0 | 0.00 | 0.00 | 0.18 | 70 | 1017.6 |
| 20260502204112 | 22 | 85 | 0.0 | 8.0 | 0.00 | 0.00 | 0.18 | 70 | 1017.7 |
| 20260502203631 | 22 | 130 | 8.0 | 8.0 | 0.00 | 0.00 | 0.18 | 70 | 1017.6 |
| 20260502202630 | 22 | 241 | 3.2 | 4.8 | 0.00 | 0.00 | 0.18 | 70 | 1017.6 |
| 20260502201629 | 22 | 209 | 0.0 | 6.4 | 0.00 | 0.00 | 0.18 | 70 | 1017.3 |
| 20260502200629 | 22 | 63 | 0.0 | 9.7 | 0.00 | 0.00 | 0.18 | 70 | 1017.3 |
| 20260502200251 | 22 | 145 | 8.0 | 8.0 | 0.00 | 0.00 | 0.18 | 70 | 1017.2 |
| 20260502195747 | 22 | 181 | 0.0 | 8.0 | 0.00 | 0.00 | 0.18 | 70 | 1017.3 |
| 20260502195419 | 22 | 197 | 8.0 | 8.0 | 0.00 | 0.00 | 0.18 | 70 | 1017.2 |
| 20260502195030 | 22 | 68 | 0.0 | 6.4 | 0.00 | 0.00 | 0.18 | 70 | 1017.2 |
| 20260502194029 | 22 | 39 | 0.0 | 9.7 | 0.00 | 0.00 | 0.18 | 70 | 1017.0 |
| 20260502193729 | 22 | 154 | 9.7 | 9.7 | 0.00 | 0.00 | 0.18 | 70 | 1017.1 |
| 20260502192907 | 22 | 177 | 1.6 | 6.4 | 0.00 | 0.00 | 0.18 | 70 | 1017.0 |
| 20260502191906 | 21 | 80 | 3.2 | 6.4 | 0.00 | 0.00 | 0.13 | 70 | 1016.8 |
| 20260502190904 | 21 | 70 | 0.0 | 6.4 | 0.00 | 0.00 | 0.13 | 70 | 1016.7 |
| 20260502185903 | 21 | 187 | 1.6 | 3.2 | 0.00 | 0.00 | 0.13 | 70 | 1016.8 |
| 20260502184903 | 21 | 101 | 3.2 | 4.8 | 0.00 | 0.00 | 0.13 | 70 | 1016.9 |
| 20260502183902 | 21 | 90 | 3.2 | 3.2 | 0.00 | 0.00 | 0.13 | 70 | 1016.8 |
| 20260502182900 | 21 | 226 | 0.0 | 6.4 | 0.00 | 0.00 | 0.13 | 70 | 1016.9 |
| 20260502180858 | 22 | 131 | 1.6 | 3.2 | 0.00 | 0.00 | 0.05 | 70 | 1016.8 |
| 20260502164129 | 22 | 157 | 3.2 | 3.2 | 0.00 | 0.00 | 0.00 | 70 | 1017.2 |
| 20260502163128 | 21 | 86 | 1.6 | 4.8 | 0.00 | 0.00 | 0.00 | 70 | 1017.0 |
| 20260502162128 | 21 | 169 | 0.0 | 6.4 | 0.00 | 0.00 | 0.00 | 70 | 1017.2 |
| 20260502161640 | 21 | 186 | 8.0 | 8.0 | 0.00 | 0.00 | 0.00 | 70 | 1017.1 |
| 20260502160758 | 21 | 186 | 0.0 | 1.6 | 0.00 | 0.00 | 0.00 | 70 | 1017.2 |
| 20260502150903 | 22 | 23 | 0.0 | 9.7 | 0.00 | 0.00 | 0.00 | 70 | 1017.5 |
| 20260502150602 | 22 | 167 | 8.0 | 8.0 | 0.00 | 0.00 | 0.00 | 70 | 1017.5 |
| 20260502150139 | 22 | 136 | 0.0 | 3.2 | 0.00 | 0.00 | 0.00 | 70 | 1017.6 |
| 20260502130127 | 22 | 46 | 1.6 | 4.8 | 0.00 | 0.00 | 0.00 | 70 | 1018.0 |
| 20260502123123 | 22 | 104 | 0.0 | 3.2 | 0.00 | 0.00 | 0.00 | 70 | 1018.1 |
| 20260502122122 | 22 | 99 | 1.6 | 3.2 | 0.00 | 0.00 | 0.00 | 70 | 1018.2 |
| 20260502121121 | 22 | 183 | 0.0 | 3.2 | 0.00 | 0.00 | 0.00 | 70 | 1018.4 |
| 20260502120120 | 22 | 169 | 0.0 | 3.2 | 0.00 | 0.00 | 0.00 | 70 | 1018.4 |
| 20260502115119 | 22 | 138 | 3.2 | 4.8 | 0.00 | 0.00 | 0.00 | 70 | 1018.3 |
| 20260502114118 | 22 | 124 | 1.6 | 3.2 | 0.00 | 0.00 | 0.00 | 70 | 1018.2 |
| 20260502113117 | 23 | 185 | 1.6 | 3.2 | 0.00 | 0.00 | 0.00 | 70 | 1018.0 |
| 20260502112116 | 23 | 161 | 1.6 | 6.4 | 0.00 | 0.00 | 0.00 | 70 | 1017.9 |
| 20260502111115 | 23 | 84 | 0.0 | 4.8 | 0.00 | 0.00 | 0.00 | 70 | 1017.9 |
| 20260502110114 | 23 | 58 | 1.6 | 4.8 | 0.00 | 0.00 | 0.00 | 70 | 1017.8 |
| 20260502105113 | 23 | 93 | 0.0 | 3.2 | 0.00 | 0.00 | 0.00 | 70 | 1018.0 |
| 20260502104112 | 23 | 78 | 1.6 | 1.6 | 0.00 | 0.00 | 0.00 | 70 | 1018.0 |
| 20260502103110 | 23 | 141 | 1.6 | 4.8 | 0.00 | 0.00 | 0.00 | 70 | 1018.2 |
| 20260502102110 | 23 | 114 | 1.6 | 3.2 | 0.00 | 0.00 | 0.00 | 70 | 1018.3 |
| 20260502101109 | 23 | 57 | 4.8 | 4.8 | 0.00 | 0.00 | 0.00 | 70 | 1018.2 |
| 20260502100108 | 23 | 0 | 0.0 | 4.8 | 0.00 | 0.00 | 0.00 | 70 | 1018.1 |
| 20260502091102 | 23 | 230 | 3.2 | 4.8 | 0.00 | 0.00 | 0.00 | 70 | 1017.4 |
| 20260502071049 | 25 | 45 | 0.0 | 4.8 | 0.00 | 0.00 | 0.00 | 70 | 1015.8 |
| 20260502070048 | 25 | 351 | 3.2 | 4.8 | 0.00 | 0.00 | 0.00 | 70 | 1015.7 |
| 20260502065047 | 25 | 72 | 3.2 | 4.8 | 0.00 | 0.00 | 0.00 | 70 | 1015.8 |
| 20260502064047 | 26 | 50 | 0.0 | 8.0 | 0.00 | 0.00 | 0.00 | 70 | 1015.6 |
| 20260502062842 | 26 | 73 | 0.0 | 4.8 | 0.00 | 0.00 | 0.00 | 70 | 1015.5 |
| 20260502061841 | 26 | 70 | 1.6 | 4.8 | 0.00 | 0.00 | 0.00 | 70 | 1015.5 |
| 20260502060840 | 27 | 11 | 3.2 | 4.8 | 0.00 | 0.00 | 0.00 | 70 | 1015.6 |
| 20260502055839 | 27 | 56 | 1.6 | 9.7 | 0.00 | 0.00 | 0.00 | 70 | 1015.5 |
| 20260502055533 | 27 | 23 | 9.7 | 9.7 | 0.00 | 0.00 | 0.00 | 70 | 1015.4 |
| 20260502054547 | 27 | 218 | 1.6 | 6.4 | 0.00 | 0.00 | 0.00 | 70 | 1015.4 |
| 20260502053547 | 28 | 5 | 1.6 | 6.4 | 0.00 | 0.00 | 0.00 | 70 | 1015.3 |
| 20260502052545 | 27 | 27 | 1.6 | 1.6 | 0.00 | 0.00 | 0.00 | 70 | 1015.3 |
| 20260502051544 | 27 | 52 | 3.2 | 4.8 | 0.00 | 0.00 | 0.00 | 70 | 1015.3 |
| 20260502050543 | 27 | 59 | 0.0 | 3.2 | 0.00 | 0.00 | 0.00 | 70 | 1015.3 |
| 20260502045542 | 28 | 69 | 0.0 | 3.2 | 0.00 | 0.00 | 0.00 | 70 | 1015.4 |
| 20260502044541 | 28 | 144 | 1.6 | 8.0 | 0.00 | 0.00 | 0.00 | 70 | 1015.4 |
| 20260502043540 | 28 | 1 | 1.6 | 6.4 | 0.00 | 0.00 | 0.00 | 70 | 1015.4 |
| 20260502042539 | 28 | 131 | 0.0 | 4.8 | 0.00 | 0.00 | 0.00 | 70 | 1015.6 |
| 20260502041538 | 28 | 63 | 0.0 | 4.8 | 0.00 | 0.00 | 0.00 | 70 | 1015.6 |
| 20260502040537 | 28 | 70 | 1.6 | 6.4 | 0.00 | 0.00 | 0.00 | 70 | 1015.7 |
| 20260502035536 | 29 | 56 | 3.2 | 4.8 | 0.00 | 0.00 | 0.00 | 70 | 1015.6 |
| 20260502033534 | 30 | 90 | 3.2 | 3.2 | 0.00 | 0.00 | 0.00 | 70 | 1015.7 |
| 20260502032532 | 29 | 66 | 3.2 | 6.4 | 0.00 | 0.00 | 0.00 | 70 | 1015.9 |
| 20260502031531 | 30 | 49 | 3.2 | 4.8 | 0.00 | 0.00 | 0.00 | 70 | 1016.1 |
| 20260502030530 | 30 | 61 | 1.6 | 6.4 | 0.00 | 0.00 | 0.00 | 70 | 1016.2 |
| 20260502023527 | 28 | 155 | 0.0 | 3.2 | 0.00 | 0.00 | 0.00 | 70 | 1016.6 |
| 20260502022526 | 28 | 70 | 3.2 | 8.0 | 0.00 | 0.00 | 0.00 | 70 | 1016.9 |